SCP
0 0 0 0 0 0 0 0 0 0 0 0 0 0 0 0 0 0 0 0 0 0 0 0 0 0 0 0 0 0 0 0 0 0 0 0 0 0 0 0 0 0 0
0 0 0 0 0 0 0 0 0 0 0 0 0 0 0 0 0 0 0 0 0 0 0 0 0 0 0 0 0 0 0 0 0 0 0 0 0 0 0 0 0 0 0
0 0 0 0 0 0 0 0 0 0 0 0 0 0 0 0 0 0 0 0 0 0 0 0 0 0 0 0 0 0 0 0 0 0 0 0 0 0 0 0 0 0 0
0 0 0 0 0 0 0 0 0 0 0 0 0 0 0 0 0 0 0 0 0 0 0 0 0 0 0 0 0 0 0 0 0 0 0 0 0 0 0 0 0 0 0
0 0 0 0 0 0 0 0 0 0 0 0 0 0 0 0 0 0 0 0 0 0 0 0 0 0 0 0 0 0 0 0 0 0 0 0 0 0 0 0 0 0 0
0 0 0 0 0 0 0 0 0 0 0 0 0 0 0 0 0 0 0 0 0 0 0 0 0 0 0 0 0 0 0 0 0 0 0 0 0 0 0 0 0 0 0
0 0 0 0 0 0 0 0 0 0 0 0 0 0 0 0 0 0 0 0 0 0 0 0 0 0 0 0 0 0 0 0 0 0 0 0 0 0 0 0 0 0 0
0 0 0 0 0 0 0 0 0 0 0 0 0 0 0 0 0 0 0 0 0 0 0 0 0 0 0 0 0 0 0 0 0 0 0 0 0 0 0 0 0 0 0
0 0 0 0 0 0 0 0 0 0 0 0 0 0 0 0 0 0 0 0 0 0 0 0 0 0 0 0 0 0 0 0 0 0 0 0 0 0 0 0 0 0 0
0 0 0 0 0 0 0 0 0 0 0 0 0 0 0 0 0 0 0 0 0 0 0 0 0 0 0 0 0 0 0 0 0 0 0 0 0 0 0 0 0 0 0
0 0 0 0 0 0 0 0 0 0 0 0 0 0 0 0 0 0 0 0 0 0 0 0 0 0 0 0 0 0 0 0 0 0 0 0 0 0 0 0 0 0 0
0 0 0 0 0 0 0 0 0 0 0 0 0 0 0 0 0 0 0 0 0 0 0 0 0 0 0 0 0 0 0 0 0 0 0 0 0 0 0 0 0 0 0
0 0 0 0 0 0 0 0 0 0 0 0 0 0 0 0 0 0 0 0 0 0 0 0 0 0 0 0 0 0 0 0 0 0 0 0 0 0 0 0 0 0 0
0 0 0 0 0 0 0 0 0 0 0 0 0 0 0 0 0 0 0 0 0 0 0 0 0 0 0 0 0 0 0 0 0 0 0 0 0 0 0 0 0 0 0
0 0 0 0 0 0 0 0 0 0 0 0 0 0 0 0 0 0 0 0 0 0 0 0 0 0 0 0 0 0 0 0 0 0 0 0 0 0 0 0 0 0 0
0 0 0 0 0 0 0 0 0 0 0 0 0 0 0 0 0 0 0 0 0 0 0 0 0 0 0 0 0 0 0 0 0 0 0 0 0 0 0 0 0 0 0
0 0 0 0 0 0 0 0 0 0 0 0 0 0 0 0 0 0 0 0 0 0 0 0 0 0 0 0 0 0 0 0 0 0 0 0 0 0 0 0 0 0 0
0 0 0 0 0 0 0 0 0 0 0 0 0 0 0 0 0 0 0 0 0 0 0 0 0 0 0 0 0 0 0 0 0 0 0 0 0 0 0 0 0 0 0
0 0 0 0 0 0 0 0 0 0 0 0 0 0 0 0 0 0 0 0 0 0 0 0 0 0 0 0 0 0 0 0 0 0 0 0 0 0 0 0 0 0 0
0 0 0 0 0 0 0 0 0 0 0 0 0 0 0 0 0 0 0 0 0 0 0 0 0 0 0 0 0 0 0 0 0 0 0 0 0 0 0 0 0 0 0
0 0 0 0 0 0 0 0 0 0 0 0 0 0 0 0 0 0 0 0 0 0 0 0 0 0 0 0 0 0 0 0 0 0 0 0 0 0 0 0 0 0 0
0 0 0 0 0 0 0 0 0 0 0 0 0 0 0 0 0 0 0 0 0 0 0 0 0 0 0 0 0 0 0 0 0 0 0 0 0 0 0 0 0 0 0
0 0 0 0 0 0 0 0 0 0 0 0 0 0 0 0 0 0 0 0 0 0 0 0 0 0 0 0 0 0 0 0 0 0 0 0 0 0 0 0 0 0 0
0 0 0 0 0 0 0 0 0 0 0 0 0 0 0 0 0 0 0 0 0 0 0 0 0 0 0 0 0 0 0 0 0 0 0 0 0 0 0 0 0 0 0
0 0 0 0 0 0 0 0 0 0 0 0 0 0 0 0 0 0 0 0 0 0 0 0 0 0 0 0 0 0 0 0 0 0 0 0 0 0 0 0 0 0 0
0 0 0 0 0 0 0 0 0 0 0 0 0 0 0 0 0 0 0 0 0 0 0 0 0 0 0 0 0 0 0 0 0 0 0 0 0 0 0 0 0 0 0
Wind_Speed_500mb
47 47 47 47 52 60 67 70 70 73 76 80 83 83 78 75 72 66 59 57 56 63 64 63 59 59 58 52 50 50 50 50 48 44 44 46 47 50 50 44 44 45 47
63 64 58 53 60 63 63 67 73 73 74 80 82 85 80 80 75 70 67 64 66 63 66 67 67 64 60 61 62 62 62 58 56 54 50 39 50 58 60 58 53 53 54
68 56 40 36 47 68 72 67 68 72 72 76 81 87 83 82 80 78 74 65 66 65 62 66 72 73 71 71 70 70 64 71 63 61 53 26 36 39 53 65 62 61 61
53 52 46 45 40 35 58 67 65 66 72 77 83 86 87 86 87 81 75 66 59 67 64 69 68 77 81 81 77 68 76 73 74 67 69 74 64 39 32 44 57 63 64
28 30 30 28 32 34 38 58 66 65 65 75 81 82 84 83 83 78 73 71 70 72 71 68 67 78 92 89 85 89 73 85 81 81 77 73 82 75 73 50 54 57 63
20 10 9 14 18 21 25 37 49 52 55 63 74 77 77 80 80 78 71 65 67 71 67 69 72 77 82 96 106 97 83 97 85 85 89 77 77 85 81 80 75 69 63
14 11 6 4 1 6 12 21 33 39 46 51 57 61 64 65 66 67 63 65 58 57 59 66 71 63 82 72 91 96 93 99 87 96 90 98 76 95 89 83 79 74 72
4 4 4 3 2 3 4 7 16 23 26 32 38 41 43 46 47 45 55 54 52 49 54 60 67 67 69 77 80 79 91 90 95 99 93 102 91 94 98 94 84 76 69
4 4 3 4 6 9 8 7 8 10 14 18 23 29 32 34 35 43 48 48 52 57 59 62 63 66 63 68 66 79 78 76 79 78 78 88 90 92 84 89 91 87 58
2 1 2 5 7 10 12 11 11 15 19 22 24 24 25 27 31 36 41 43 45 47 49 52 53 56 62 67 66 63 61 66 67 67 68 71 73 77 83 84 87 84 87
5 1 4 7 8 10 11 15 18 18 17 16 15 14 14 15 16 15 19 24 27 30 34 40 43 46 49 53 60 69 72 73 72 72 73 78 78 81 81 83 85 82 79
14 7 3 8 6 4 7 15 20 22 21 18 16 14 9 6 8 11 19 25 28 31 33 34 37 41 46 50 55 59 59 59 62 66 68 69 73 78 79 77 77 75 76
4 3 3 4 11 15 17 19 20 20 16 9 4 2 5 13 20 22 27 31 34 37 38 38 38 40 43 47 50 53 54 57 57 61 66 65 66 68 71 71 73 74 72
5 3 8 12 17 19 20 19 16 13 8 4 9 13 15 22 29 33 36 38 40 41 41 41 42 42 44 48 49 53 54 55 57 59 61 61 63 62 65 67 69 69 71
10 9 11 10 14 14 10 7 3 7 9 12 18 24 29 35 38 41 45 44 44 45 45 45 44 43 44 44 46 47 49 55 57 59 60 61 62 61 65 66 69 69 71
17 16 14 13 13 13 15 12 9 11 16 23 26 35 37 38 40 43 44 42 43 46 47 46 46 48 46 43 46 48 52 57 60 62 62 63 64 66 67 62 60 60 60
19 17 17 11 6 4 2 4 6 12 20 22 22 27 26 28 30 32 34 34 37 40 43 45 47 46 46 45 47 49 54 56 59 60 61 64 65 66 62 59 58 56 53
15 13 13 11 9 8 8 7 5 3 6 9 14 18 21 23 24 26 29 33 37 40 41 42 46 49 46 48 47 48 54 58 59 60 64 65 65 62 58 53 48 52 50
18 12 9 6 4 2 5 9 11 14 17 20 23 25 27 29 31 33 36 39 42 45 47 47 48 50 48 53 53 51 55 59 61 60 63 65 66 62 59 51 45 46 44
18 14 11 7 3 1 5 10 15 20 23 26 28 30 32 35 37 40 43 46 48 49 52 54 53 53 49 47 48 50 58 63 60 58 59 60 58 52 49 49 48 51 52
13 11 7 3 1 7 12 18 22 25 27 27 28 31 33 37 40 43 45 47 50 51 51 51 49 47 44 40 41 42 53 55 54 49 48 46 44 43 42 47 45 46 44
11 7 1 5 10 15 19 21 23 23 23 24 27 31 37 41 44 46 48 49 52 53 50 49 45 44 42 42 38 39 43 50 49 42 37 34 34 35 35 39 40 31 36
4 2 5 10 15 18 19 19 23 25 27 30 34 38 41 45 47 46 47 47 47 48 44 43 43 41 40 38 38 38 38 41 42 34 30 26 28 26 28 34 36 37 40
6 10 13 14 16 19 22 24 26 30 34 37 40 44 48 49 50 51 51 51 49 46 43 43 44 41 38 37 37 38 37 36 38 39 29 25 24 25 22 29 35 40 44
12 16 19 20 23 26 31 34 37 40 42 45 47 50 53 55 53 53 53 52 48 48 47 46 45 40 36 31 36 36 34 32 32 32 32 30 27 24 27 30 32 42 49
17 20 23 27 32 35 40 46 50 53 56 57 57 57 57 55 56 57 57 55 54 51 50 50 47 39 39 38 34 33 29 27 28 31 30 32 32 32 27 26 31 37 45
Wind_Direction_500mb
265 261 256 250 246 243 242 240 238 239 238 235 235 237 239 241 242 240 246 245 249 242 243 244 246 247 247 249 250 250 252 249 251 239 242 241 239 242 242 247 248 241 245
269 269 267 259 250 246 243 241 238 237 238 239 239 240 242 245 247 248 244 242 246 250 249 241 246 249 252 249 249 250 248 246 241 239 243 240 249 249 248 249 247 245 243
274 282 269 257 256 246 238 238 240 239 238 239 239 240 239 245 245 247 248 250 246 246 257 255 248 246 245 247 249 250 257 250 248 244 238 226 235 250 248 249 250 243 243
286 283 276 266 255 264 240 235 237 240 239 237 238 239 240 241 246 251 251 250 258 256 254 256 256 257 246 248 247 251 253 252 250 245 242 244 249 250 257 261 258 251 248
309 273 261 255 245 241 234 231 235 238 239 238 237 240 242 246 249 253 251 254 249 252 253 253 260 261 252 254 248 248 249 248 251 250 254 246 247 250 253 259 259 251 252
354 342 268 261 241 241 244 239 236 237 239 238 236 239 244 247 250 252 257 259 259 257 260 259 260 264 260 252 254 267 257 250 251 250 253 251 257 254 252 254 256 262 262
352 10 22 38 175 235 248 236 226 233 236 233 233 239 245 251 255 257 261 261 262 263 267 265 259 262 262 265 266 253 255 263 247 257 266 250 264 256 258 256 262 262 260
321 334 353 51 326 302 284 237 234 234 227 226 231 237 243 248 252 256 257 259 263 261 267 269 268 267 269 273 261 272 264 260 250 258 256 251 255 263 262 260 264 260 261
204 216 293 297 279 269 264 238 212 207 215 222 229 235 239 243 244 246 253 259 266 266 266 264 260 258 262 264 272 266 266 271 268 268 267 263 266 266 267 264 266 264 256
5 307 230 220 236 237 239 236 227 222 219 223 225 227 230 235 241 247 253 258 261 264 264 265 262 260 257 260 263 269 270 270 272 272 272 272 273 275 273 272 272 268 259
84 168 260 275 274 263 241 221 210 203 199 198 196 196 203 215 226 244 261 269 274 275 276 273 270 265 262 261 261 261 264 267 269 270 273 274 274 273 272 272 272 269 260
67 55 304 266 280 256 171 158 152 143 139 142 148 155 163 215 264 289 295 297 299 295 293 290 286 281 276 271 267 267 268 269 268 269 272 274 273 272 273 273 272 270 266
49 49 69 142 139 132 132 133 129 121 120 123 140 236 279 289 291 294 293 295 295 290 288 288 286 282 279 276 273 271 266 266 265 270 271 275 274 275 275 276 274 272 268
232 191 142 142 145 144 139 140 143 150 162 239 289 300 299 293 292 292 293 294 293 292 292 289 286 286 283 279 275 271 269 268 269 271 273 274 276 278 279 278 276 273 267
206 189 174 161 163 172 165 151 191 238 267 289 292 292 291 292 291 293 292 289 287 289 291 290 291 290 288 285 282 275 270 269 271 273 273 274 275 275 277 276 274 271 267
173 154 152 162 170 181 194 206 220 262 279 282 290 288 289 292 294 293 291 292 295 296 294 294 293 292 293 289 281 276 271 272 272 273 272 274 277 277 277 276 271 271 267
155 155 153 159 162 164 193 266 291 293 296 303 298 293 300 301 298 296 297 300 299 298 297 295 294 292 290 287 282 278 276 273 274 276 277 278 279 281 280 277 274 268 262
135 128 118 111 91 72 63 63 59 8 330 317 316 324 325 320 316 312 310 311 312 306 298 292 288 287 286 283 281 279 277 277 277 277 275 275 276 277 274 271 269 266 258
156 151 137 124 108 47 350 352 348 342 334 328 327 326 324 322 319 318 320 321 322 320 315 311 304 299 293 284 281 277 275 276 279 279 280 280 280 280 275 268 261 257 247
161 154 152 153 153 281 313 319 322 320 318 318 319 319 317 312 309 308 308 307 305 304 306 307 307 306 303 295 288 285 285 287 290 291 289 288 289 289 281 264 258 244 239
159 149 142 141 310 317 321 321 319 317 317 319 318 319 320 319 315 308 303 300 297 296 295 295 297 297 298 294 286 282 283 286 286 286 287 289 292 287 274 264 250 241 255
140 137 112 314 311 310 310 308 306 311 316 320 320 322 323 322 320 316 310 306 301 298 299 296 296 296 295 294 288 284 283 287 287 287 289 291 294 284 274 255 245 243 233
134 307 307 299 295 295 293 291 299 305 307 310 313 315 317 317 317 316 315 309 302 298 294 291 293 295 292 291 291 291 289 285 286 281 284 287 295 277 269 257 241 242 232
283 285 281 278 283 293 299 301 300 301 304 307 310 311 313 311 308 307 308 309 306 298 291 285 288 289 288 293 286 285 284 283 280 285 285 282 286 277 261 245 250 242 248
278 279 276 278 282 287 292 294 296 299 301 304 305 306 304 301 301 299 299 300 299 294 290 289 287 289 291 288 287 288 288 286 280 277 267 263 265 277 256 257 255 242 238
282 286 290 289 288 290 292 293 295 297 297 296 296 296 296 295 295 294 292 290 290 286 283 282 278 276 279 281 282 285 283 280 274 269 262 264 263 265 266 263 267 260 251
Wind_Speed_850mb
47 47 47 47 52 60 67 70 70 73 76 80 83 83 78 75 72 66 59 57 56 63 64 63 59 59 58 52 50 50 50 50 48 44 44 46 47 50 50 44 44 45 47
63 64 58 53 60 63 63 67 73 73 74 80 82 85 80 80 75 70 67 64 66 63 66 67 67 64 60 61 62 62 62 58 56 54 50 39 50 58 60 58 53 53 54
68 56 40 36 47 68 72 67 68 72 72 76 81 87 83 82 80 78 74 65 66 65 62 66 72 73 71 71 70 70 64 71 63 61 53 26 36 39 53 65 62 61 61
53 52 46 45 40 35 58 67 65 66 72 77 83 86 87 86 87 81 75 66 59 67 64 69 68 77 81 81 77 68 76 73 74 67 69 74 64 39 32 44 57 63 64
28 30 30 28 32 34 38 58 66 65 65 75 81 82 84 83 83 78 73 71 70 72 71 68 67 78 92 89 85 89 73 85 81 81 77 73 82 75 73 50 54 57 63
20 10 9 14 18 21 25 37 49 52 55 63 74 77 77 80 80 78 71 65 67 71 67 69 72 77 82 96 106 97 83 97 85 85 89 77 77 85 81 80 75 69 63
14 11 6 4 1 6 12 21 33 39 46 51 57 61 64 65 66 67 63 65 58 57 59 66 71 63 82 72 91 96 93 99 87 96 90 98 76 95 89 83 79 74 72
4 4 4 3 2 3 4 7 16 23 26 32 38 41 43 46 47 45 55 54 52 49 54 60 67 67 69 77 80 79 91 90 95 99 93 102 91 94 98 94 84 76 69
4 4 3 4 6 9 8 7 8 10 14 18 23 29 32 34 35 43 48 48 52 57 59 62 63 66 63 68 66 79 78 76 79 78 78 88 90 92 84 89 91 87 58
2 1 2 5 7 10 12 11 11 15 19 22 24 24 25 27 31 36 41 43 45 47 49 52 53 56 62 67 66 63 61 66 67 67 68 71 73 77 83 84 87 84 87
5 1 4 7 8 10 11 15 18 18 17 16 15 14 14 15 16 15 19 24 27 30 34 40 43 46 49 53 60 69 72 73 72 72 73 78 78 81 81 83 85 82 79
14 7 3 8 6 4 7 15 20 22 21 18 16 14 9 6 8 11 19 25 28 31 33 34 37 41 46 50 55 59 59 59 62 66 68 69 73 78 79 77 77 75 76
4 3 3 4 11 15 17 19 20 20 16 9 4 2 5 13 20 22 27 31 34 37 38 38 38 40 43 47 50 53 54 57 57 61 66 65 66 68 71 71 73 74 72
5 3 8 12 17 19 20 19 16 13 8 4 9 13 15 22 29 33 36 38 40 41 41 41 42 42 44 48 49 53 54 55 57 59 61 61 63 62 65 67 69 69 71
10 9 11 10 14 14 10 7 3 7 9 12 18 24 29 35 38 41 45 44 44 45 45 45 44 43 44 44 46 47 49 55 57 59 60 61 62 61 65 66 69 69 71
17 16 14 13 13 13 15 12 9 11 16 23 26 35 37 38 40 43 44 42 43 46 47 46 46 48 46 43 46 48 52 57 60 62 62 63 64 66 67 62 60 60 60
19 17 17 11 6 4 2 4 6 12 20 22 22 27 26 28 30 32 34 34 37 40 43 45 47 46 46 45 47 49 54 56 59 60 61 64 65 66 62 59 58 56 53
15 13 13 11 9 8 8 7 5 3 6 9 14 18 21 23 24 26 29 33 37 40 41 42 46 49 46 48 47 48 54 58 59 60 64 65 65 62 58 53 48 52 50
18 12 9 6 4 2 5 9 11 14 17 20 23 25 27 29 31 33 36 39 42 45 47 47 48 50 48 53 53 51 55 59 61 60 63 65 66 62 59 51 45 46 44
18 14 11 7 3 1 5 10 15 20 23 26 28 30 32 35 37 40 43 46 48 49 52 54 53 53 49 47 48 50 58 63 60 58 59 60 58 52 49 49 48 51 52
13 11 7 3 1 7 12 18 22 25 27 27 28 31 33 37 40 43 45 47 50 51 51 51 49 47 44 40 41 42 53 55 54 49 48 46 44 43 42 47 45 46 44
11 7 1 5 10 15 19 21 23 23 23 24 27 31 37 41 44 46 48 49 52 53 50 49 45 44 42 42 38 39 43 50 49 42 37 34 34 35 35 39 40 31 36
4 2 5 10 15 18 19 19 23 25 27 30 34 38 41 45 47 46 47 47 47 48 44 43 43 41 40 38 38 38 38 41 42 34 30 26 28 26 28 34 36 37 40
6 10 13 14 16 19 22 24 26 30 34 37 40 44 48 49 50 51 51 51 49 46 43 43 44 41 38 37 37 38 37 36 38 39 29 25 24 25 22 29 35 40 44
12 16 19 20 23 26 31 34 37 40 42 45 47 50 53 55 53 53 53 52 48 48 47 46 45 40 36 31 36 36 34 32 32 32 32 30 27 24 27 30 32 42 49
17 20 23 27 32 35 40 46 50 53 56 57 57 57 57 55 56 57 57 55 54 51 50 50 47 39 39 38 34 33 29 27 28 31 30 32 32 32 27 26 31 37 45
Wind_Direction_850mb
265 261 256 250 246 243 242 240 238 239 238 235 235 237 239 241 242 240 246 245 249 242 243 244 246 247 247 249 250 250 252 249 251 239 242 241 239 242 242 247 248 241 245
269 269 267 259 250 246 243 241 238 237 238 239 239 240 242 245 247 248 244 242 246 250 249 241 246 249 252 249 249 250 248 246 241 239 243 240 249 249 248 249 247 245 243
274 282 269 257 256 246 238 238 240 239 238 239 239 240 239 245 245 247 248 250 246 246 257 255 248 246 245 247 249 250 257 250 248 244 238 226 235 250 248 249 250 243 243
286 283 276 266 255 264 240 235 237 240 239 237 238 239 240 241 246 251 251 250 258 256 254 256 256 257 246 248 247 251 253 252 250 245 242 244 249 250 257 261 258 251 248
309 273 261 255 245 241 234 231 235 238 239 238 237 240 242 246 249 253 251 254 249 252 253 253 260 261 252 254 248 248 249 248 251 250 254 246 247 250 253 259 259 251 252
354 342 268 261 241 241 244 239 236 237 239 238 236 239 244 247 250 252 257 259 259 257 260 259 260 264 260 252 254 267 257 250 251 250 253 251 257 254 252 254 256 262 262
352 10 22 38 175 235 248 236 226 233 236 233 233 239 245 251 255 257 261 261 262 263 267 265 259 262 262 265 266 253 255 263 247 257 266 250 264 256 258 256 262 262 260
321 334 353 51 326 302 284 237 234 234 227 226 231 237 243 248 252 256 257 259 263 261 267 269 268 267 269 273 261 272 264 260 250 258 256 251 255 263 262 260 264 260 261
204 216 293 297 279 269 264 238 212 207 215 222 229 235 239 243 244 246 253 259 266 266 266 264 260 258 262 264 272 266 266 271 268 268 267 263 266 266 267 264 266 264 256
5 307 230 220 236 237 239 236 227 222 219 223 225 227 230 235 241 247 253 258 261 264 264 265 262 260 257 260 263 269 270 270 272 272 272 272 273 275 273 272 272 268 259
84 168 260 275 274 263 241 221 210 203 199 198 196 196 203 215 226 244 261 269 274 275 276 273 270 265 262 261 261 261 264 267 269 270 273 274 274 273 272 272 272 269 260
67 55 304 266 280 256 171 158 152 143 139 142 148 155 163 215 264 289 295 297 299 295 293 290 286 281 276 271 267 267 268 269 268 269 272 274 273 272 273 273 272 270 266
49 49 69 142 139 132 132 133 129 121 120 123 140 236 279 289 291 294 293 295 295 290 288 288 286 282 279 276 273 271 266 266 265 270 271 275 274 275 275 276 274 272 268
232 191 142 142 145 144 139 140 143 150 162 239 289 300 299 293 292 292 293 294 293 292 292 289 286 286 283 279 275 271 269 268 269 271 273 274 276 278 279 278 276 273 267
206 189 174 161 163 172 165 151 191 238 267 289 292 292 291 292 291 293 292 289 287 289 291 290 291 290 288 285 282 275 270 269 271 273 273 274 275 275 277 276 274 271 267
173 154 152 162 170 181 194 206 220 262 279 282 290 288 289 292 294 293 291 292 295 296 294 294 293 292 293 289 281 276 271 272 272 273 272 274 277 277 277 276 271 271 267
155 155 153 159 162 164 193 266 291 293 296 303 298 293 300 301 298 296 297 300 299 298 297 295 294 292 290 287 282 278 276 273 274 276 277 278 279 281 280 277 274 268 262
135 128 118 111 91 72 63 63 59 8 330 317 316 324 325 320 316 312 310 311 312 306 298 292 288 287 286 283 281 279 277 277 277 277 275 275 276 277 274 271 269 266 258
156 151 137 124 108 47 350 352 348 342 334 328 327 326 324 322 319 318 320 321 322 320 315 311 304 299 293 284 281 277 275 276 279 279 280 280 280 280 275 268 261 257 247
161 154 152 153 153 281 313 319 322 320 318 318 319 319 317 312 309 308 308 307 305 304 306 307 307 306 303 295 288 285 285 287 290 291 289 288 289 289 281 264 258 244 239
159 149 142 141 310 317 321 321 319 317 317 319 318 319 320 319 315 308 303 300 297 296 295 295 297 297 298 294 286 282 283 286 286 286 287 289 292 287 274 264 250 241 255
140 137 112 314 311 310 310 308 306 311 316 320 320 322 323 322 320 316 310 306 301 298 299 296 296 296 295 294 288 284 283 287 287 287 289 291 294 284 274 255 245 243 233
134 307 307 299 295 295 293 291 299 305 307 310 313 315 317 317 317 316 315 309 302 298 294 291 293 295 292 291 291 291 289 285 286 281 284 287 295 277 269 257 241 242 232
283 285 281 278 283 293 299 301 300 301 304 307 310 311 313 311 308 307 308 309 306 298 291 285 288 289 288 293 286 285 284 283 280 285 285 282 286 277 261 245 250 242 248
278 279 276 278 282 287 292 294 296 299 301 304 305 306 304 301 301 299 299 300 299 294 290 289 287 289 291 288 287 288 288 286 280 277 267 263 265 277 256 257 255 242 238
282 286 290 289 288 290 292 293 295 297 297 296 296 296 296 295 295 294 292 290 290 286 283 282 278 276 279 281 282 285 283 280 274 269 262 264 263 265 266 263 267 260 251